Weather History for KICR - September, 2013

Change the Weather History Date:

Wednesday, September 4, 2013

  Actual Average Record
Temperature  
Mean Temperature 83 °F 69 °F  
Max Temperature 94 °F 82 °F 100 °F (2012)
Min Temperature 71 °F 56 °F 45 °F (2010)
Degree Days  
Heating Degree Days 0 2  
Month to date heating degree days 0 7  
Since 1 July heating degree days 7 21  
Cooling Degree Days 18 6  
Month to date cooling degree days 47 26  
Year to date cooling degree days 838 832  
Growing Degree Days 32 (Base 50)    
Moisture  
Dew Point 60 °F    
Average Humidity 51    
Maximum Humidity 68    
Minimum Humidity 33    
Precipitation  
Precipitation 0.00 in 0.06 in 0.00 in (2015)
Month to date precipitation 0.00 0.28  
Year to date precipitation 15.99 17.28  
Sea Level Pressure  
Sea Level Pressure 29.97 in    
Wind  
Wind Speed 11 mph (SE)    
Max Wind Speed 23 mph    
Max Gust Speed 29 mph    
Visibility 10 miles    
Events      
T = Trace of Precipitation, MM = Missing Value Source: NWS Daily Summary

Daily Weather History Graph

Daily Weather History Graph

Search for Another Location

Airport or City:

Trip Planner

Search our weather history database for the weather conditions in past years. The results will help you decide how hot, cold, wet, or windy it might be!

Date:

Astronomy

Sep. 04, 2013 Rise Set
Actual Time 7:06 AM CDT 8:08 PM CDT
Civil Twilight 6:37 AM CDT 8:37 PM CDT
Nautical Twilight 6:02 AM CDT 9:12 PM CDT
Astronomical Twilight 5:26 AM CDT 9:49 PM CDT
Moon 6:20 AM CDT (9/4) 7:28 PM CDT (9/4)
Length of Visible Light 14h 00m
Length of Day
13h 01m
Waning Crescent, 1% of the Moon is Illuminated
Sep 4
Waning Crescent
Sep 5
New
Sep 12
First Quarter
Sep 19
Full
Sep 26
Last Quarter

Hourly Weather History & Observations

Time (CDT) Temp. Heat Index Dew Point Humidity Pressure Visibility Wind Dir Wind Speed Gust Speed Precip Events Conditions
12:53 AM 78.1 °F - 61.0 °F 56% 29.92 in 10.0 mi SE 8.1 mph - N/A   Overcast
1:53 AM 77.0 °F - 61.0 °F 58% 29.94 in 10.0 mi ESE 12.7 mph - N/A   Mostly Cloudy
2:53 AM 75.0 °F - 61.0 °F 62% 29.94 in 10.0 mi ESE 12.7 mph - N/A   Scattered Clouds
3:53 AM 75.0 °F - 60.1 °F 60% 29.94 in 10.0 mi SE 13.8 mph - N/A   Overcast
4:53 AM 73.9 °F - 60.1 °F 62% 29.94 in 10.0 mi SE 16.1 mph - N/A   Clear
5:53 AM 75.0 °F - 59.0 °F 57% 29.94 in 10.0 mi South 20.7 mph 28.8 mph N/A   Clear
6:53 AM 72.0 °F - 59.0 °F 64% 29.95 in 10.0 mi SSE 6.9 mph - N/A   Clear
7:53 AM 72.0 °F - 60.1 °F 66% 29.98 in 10.0 mi SSE 8.1 mph - N/A   Scattered Clouds
8:53 AM 73.9 °F - 60.1 °F 62% 29.99 in 10.0 mi SSE 8.1 mph - N/A   Clear
9:53 AM 81.0 °F 81.3 °F 59.0 °F 47% 30.00 in 10.0 mi South 16.1 mph - N/A   Clear
10:53 AM 84.0 °F 83.5 °F 57.9 °F 41% 30.00 in 10.0 mi South 12.7 mph - N/A   Clear
11:53 AM 86.0 °F 85.0 °F 57.9 °F 38% 30.01 in 10.0 mi SSE 6.9 mph - N/A   Clear
12:53 PM 88.0 °F 86.9 °F 57.9 °F 36% 29.99 in 10.0 mi SE 10.4 mph - N/A   Clear
1:53 PM 88.0 °F 87.1 °F 59.0 °F 37% 29.99 in 10.0 mi Variable 3.5 mph - N/A   Clear
2:53 PM 91.0 °F 90.2 °F 59.0 °F 34% 29.99 in 10.0 mi SSE 5.8 mph - N/A   Clear
3:53 PM 91.9 °F 91.2 °F 59.0 °F 33% 29.97 in 10.0 mi SE 8.1 mph - N/A   Clear
4:53 PM 93.0 °F 92.7 °F 60.1 °F 33% 29.96 in 10.0 mi Variable 5.8 mph - N/A   Clear
5:53 PM 93.0 °F 93.0 °F 61.0 °F 34% 29.95 in 10.0 mi ESE 12.7 mph - N/A   Clear
6:53 PM 90.0 °F 90.3 °F 62.1 °F 39% 29.96 in 10.0 mi ESE 15.0 mph - N/A   Clear
7:53 PM 84.9 °F 85.0 °F 61.0 °F 44% 29.97 in 10.0 mi SE 13.8 mph - N/A   Clear
8:53 PM 79.0 °F - 61.0 °F 54% 29.99 in 10.0 mi SE 10.4 mph - N/A   Clear
9:53 PM 78.1 °F - 59.0 °F 52% 30.01 in 10.0 mi SE 11.5 mph - N/A   Clear
10:53 PM 77.0 °F - 59.0 °F 54% 30.01 in 10.0 mi SE 13.8 mph - N/A   Clear
11:53 PM 75.9 °F - 61.0 °F 60% 30.01 in 10.0 mi SE 11.5 mph - N/A   Clear